FENGYUN 1C DEB, 29873

Orbit data source: Space-Track

FENGYUN 1C DEB, 29873 is space debris in SSO originally from a launch on Mon, 10 May 1999 UTC launched from the Taiyaun Space Center, China (TSC). Fengyun 1C debris stems from the Chinese weather satellite Fengyun-1C, which was intentionally destroyed by a Chinese anti-satellite missile in 2007. This event dramatically increased the amount of space debris, with thousands of trackable fragments posing hazards to satellites and human spaceflight. The Fengyun 1C debris cloud has become a focal point in discussions about space sustainability and the need for international regulations to prevent the creation of new debris.

Loading next visibility...
Identifier
29873, 1999-025FT
Orbit
SSO
Country
Flag of CNCN / PRC
Related business
Manufacturer
Unknown
Mission
Spacecraft
Bus & Motor
Unknown
Mass
Unknown
Launch date (UTC)
1999-05-10 (27 years ago)
Launch vehicle
Unknown
Launch site
Taiyaun Space Center, China (TSC)
Object type
Payload
Rocket body
Debris
Shape & HBR
Unknown shape, 0.1 m
Radar Cross Section
Medium (>0.1 m² and <1 m²)

Expand to show TLE details & history
Last TLE update: 22 hours ago

TLE from 22 hours ago
0 FENGYUN 1C DEB
1 29873U 99025FT  26171.38954154  .00000589  00000-0  42860-3 0  9995
2 29873  99.4228  41.7683 0094549  43.5415 134.5253 13.98334554989652
Epoch: 2026-06-20T09:20Z
TLE epoch observation values (Epoch: 2026-06-20T09:20:56.389Z)
Latitude
1.04348°
Longitude
173.10078°
Altitude
950.889 km
Speed
7.352 km/s
True Right ascension
14h 47m 45s
True Declination
1° 02' 15"
Sunlit
Object was in full shadow at epoch
Visualization orbit readout
Latitude
Unknown
Longitude
Unknown
Altitude
Unknown
Speed
Unknown
Apparent Right ascension
Unknown
Apparent Declination
Unknown
Sunlit
N/A
Visualization observer readout
Local Sidereal Time
18:45:02
Azimuth
Unknown
Elevation
Unknown
Doppler factor
Unknown
Orbital elements
Apogee altitude
965.574 km
Perigee altitude
828.007 km
Semi-major axis
7,274.927 km
Eccentricity
0.00945
Inclination
99.4228°
RAAN
41.7683°
Arg. of periapsis
43.5415°
True anomaly
135.29136°
Mean anomaly
134.5253°
Eccentric anomaly
134.90897°
Mean motion
3.49784 °/min
Orbital period
102.92 mins
BSTAR
0.0004286
Loading maneuver chart data...
Computing Atmospheric mass density...

Documentation

Showing up to 5 results
|